Location: Waco, TX
(31.5480°N, 97.1670°W)
Time: 22:08:33
(UTC-05:00)

ISS - Pass Details

Date: 16 September 2018
Orbit: 403 x 408 km, 51.6° (Epoch: 25 September)

Event Time Altitude Azimuth Distance (km) Brightness Sun altitude
Rises 21:27:08 0° 195° (SSW) 2,315 - -24.6°
Reaches altitude 10° 21:29:33 10° 178° (S) 1,459 - -25.1°
Maximum altitude 21:32:03 20° 128° (SE) 992 - -25.6°
Drops below altitude 10° 21:34:34 10° 78° (ENE) 1,464 - -26.1°
Sets 21:36:59 0° 61° (ENE) 2,327 - -26.6°
